Wind_Speed
6 6 6 7 7 7 7 7 6 5 5 5 5 6 7 9 11 13 15 16 18 19 21 22 22 21 20 19 17 14 12 11 11 11 12 12 12 11 11 11 9 7 6 6 6 5 5 4 5 5 6 6 7 8 8 9 9 9 9 10 10 11 11 10 10 10 9 9 8 7 7 6 6 6 6 5 5 4 4 4 3 3 3 3 3
6 7 7 8 8 7 7 7 6 5 5 5 6 7 8 9 11 13 15 17 18 20 21 21 21 21 20 19 17 14 12 10 10 10 11 12 12 11 11 11 10 7 6 5 5 5 5 4 4 4 5 6 7 7 8 8 8 9 9 10 10 10 10 10 10 9 9 9 8 8 7 7 6 6 6 5 5 5 4 4 4 4 4 4 4
6 8 8 8 8 8 8 7 6 5 5 6 7 7 8 10 12 14 16 17 19 20 21 21 21 21 20 19 17 14 11 10 9 10 11 11 12 11 11 10 10 8 6 5 5 5 5 5 5 5 5 6 6 6 6 7 7 8 8 8 8 9 9 9 9 8 8 8 8 7 7 6 5 5 5 5 5 4 4 5 5 5 5 5 6
6 7 8 8 9 9 8 7 7 6 6 7 8 8 9 11 13 14 16 18 19 20 21 22 22 21 20 19 17 15 12 10 9 9 10 11 11 11 11 10 10 9 7 5 4 4 5 5 5 5 5 5 6 6 6 6 6 6 6 6 6 6 6 7 7 7 7 7 6 6 6 5 5 5 5 5 5 5 5 5 5 5 6 6 6
7 7 8 9 9 9 9 8 8 8 8 8 9 10 11 12 14 15 17 18 19 21 21 22 23 22 21 19 17 15 12 10 9 9 9 10 11 11 11 10 9 9 8 7 5 5 4 5 5 5 5 5 6 6 6 6 5 5 4 4 4 4 4 5 5 5 5 5 5 5 4 4 5 6 5 5 5 5 5 6 6 6 6 7 7
7 8 9 10 10 10 10 9 8 8 9 9 10 11 12 13 15 17 18 19 20 22 22 23 23 22 21 19 18 15 13 11 10 9 9 10 10 10 10 10 9 9 8 8 7 6 5 5 5 6 6 6 6 6 6 6 5 5 4 3 3 3 3 3 4 4 4 3 4 4 3 4 5 5 5 5 6 6 6 7 7 7 7 7 8
7 8 10 10 10 9 8 8 8 9 9 10 11 12 13 14 16 18 19 21 22 23 23 24 24 23 22 20 18 16 13 11 10 10 10 10 10 10 10 10 10 9 8 8 8 8 7 6 6 6 6 6 6 6 7 7 7 6 6 5 4 3 3 3 3 3 4 3 3 4 4 5 5 5 5 5 6 7 7 8 8 8 8 9 9
7 8 8 8 8 7 6 6 8 10 11 12 12 13 14 15 17 19 20 22 23 24 24 24 24 24 22 21 20 17 14 12 11 10 10 10 10 10 10 11 10 9 9 8 9 8 8 7 7 6 7 7 7 7 8 8 8 8 6 5 4 3 3 3 3 3 4 4 4 4 5 4 5 5 6 6 6 7 8 8 9 9 10 10 10
7 6 7 6 5 4 3 4 8 10 12 13 13 14 15 16 17 19 21 22 23 24 25 24 24 24 23 22 21 18 15 12 11 10 10 11 11 11 11 11 11 10 9 9 9 9 9 8 8 7 7 7 7 8 8 8 8 7 6 4 3 3 3 3 3 2 2 3 3 3 3 4 5 5 6 7 7 7 8 9 10 10 11 11 11
6 4 6 5 4 2 1 4 8 10 12 14 14 14 15 16 18 19 21 22 23 24 25 25 24 24 24 22 21 19 16 13 11 10 10 11 11 11 11 11 11 10 10 9 9 9 9 9 9 8 8 8 7 7 7 7 6 6 5 4 4 4 4 4 5 4 3 3 4 4 3 3 4 5 6 7 7 8 9 9 10 10 10 10 10
5 4 4 5 5 5 4 5 8 11 12 13 14 15 15 16 18 20 21 22 23 24 25 25 24 24 23 23 22 20 17 15 12 11 11 11 11 12 12 11 11 10 10 9 9 9 9 9 9 9 9 9 8 7 7 6 6 5 5 5 5 5 5 6 6 6 6 6 6 6 5 6 7 7 7 7 8 8 9 9 9 9 9 9 10
6 5 4 6 6 7 6 6 9 12 13 13 14 15 15 17 18 20 21 22 23 24 25 25 25 24 23 23 22 21 19 16 13 12 11 11 12 12 13 12 11 11 10 10 9 9 9 10 9 9 9 9 9 8 8 7 7 7 6 6 5 5 6 6 6 6 7 7 6 5 5 6 7 7 8 8 8 8 8 9 9 9 9 10 10
10 8 7 8 8 8 8 9 11 13 14 13 14 15 15 16 18 20 21 22 23 24 24 25 25 24 23 22 22 22 20 17 14 12 12 12 12 13 13 13 12 11 11 11 10 10 10 10 10 10 10 10 9 9 8 8 8 8 7 6 6 6 5 5 6 6 6 6 6 6 6 6 7 7 7 7 7 8 8 9 9 9 10 10 11
15 11 10 12 11 11 11 12 13 15 14 13 14 15 15 16 17 19 21 22 22 23 24 25 25 24 23 22 22 22 21 18 15 12 12 12 12 12 13 13 12 11 11 11 11 10 10 10 11 11 11 10 9 9 8 8 8 8 7 7 6 6 5 5 6 5 6 6 6 6 6 6 7 7 8 8 9 9 9 9 10 10 11 12 12
17 15 14 14 14 14 14 14 15 16 16 14 14 15 15 16 17 18 20 22 22 23 23 24 24 24 23 22 22 22 22 20 16 13 12 12 12 12 13 13 13 12 11 11 11 11 10 10 10 10 9 9 7 7 7 7 7 7 7 7 7 7 6 6 7 6 6 6 7 7 7 7 8 9 10 10 11 11 11 11 12 12 13 14 14
15 18 17 15 16 16 16 16 16 17 17 15 15 15 16 16 16 17 19 21 22 22 23 24 24 24 23 22 23 23 22 21 18 14 13 12 12 12 12 12 12 12 11 11 11 11 11 10 9 8 8 8 6 6 5 6 7 8 8 8 8 8 8 8 8 7 7 8 8 9 9 10 10 11 12 12 13 13 13 14 14 15 15 16 16
14 19 19 18 16 17 17 16 17 18 18 17 16 15 16 16 16 17 19 20 22 22 23 23 24 24 23 22 22 23 23 22 20 16 14 13 12 12 12 12 12 11 11 11 11 11 11 11 10 9 8 8 7 6 5 6 6 8 9 9 10 9 9 9 8 8 9 9 9 10 10 11 12 12 13 14 14 15 16 16 16 17 17 17 18
17 20 23 22 19 18 17 17 18 19 19 19 18 16 16 16 16 17 19 20 21 22 23 23 23 23 23 22 22 23 24 23 21 18 16 14 13 12 12 12 12 11 11 12 11 11 11 11 11 10 8 7 7 6 5 5 5 6 7 8 9 9 10 10 9 9 9 9 10 11 11 12 12 13 14 14 15 16 16 17 18 18 18 18 18
21 23 26 25 21 19 18 19 19 20 20 20 19 16 16 16 16 17 18 20 22 22 23 23 24 24 23 23 22 22 23 23 21 19 17 16 14 13 13 12 12 11 11 12 12 12 12 12 12 11 10 8 7 7 5 5 5 5 6 7 9 10 11 11 11 11 10 10 11 11 12 12 13 13 14 14 15 16 16 17 18 18 18 19 19
25 25 27 26 23 20 19 19 19 20 21 20 19 16 15 15 16 17 18 20 22 23 23 24 24 24 23 22 22 22 23 22 21 19 17 16 15 14 14 13 12 11 12 13 13 14 14 14 14 13 13 11 8 7 7 6 5 6 6 8 10 11 12 12 13 12 12 11 11 11 12 12 12 13 13 13 14 15 16 17 17 18 19 19 20
27 28 28 27 24 21 19 18 19 19 19 19 18 16 15 15 15 16 18 20 22 23 24 24 24 24 23 22 21 22 23 22 20 19 18 17 16 15 15 14 12 12 12 13 14 14 15 15 15 14 14 13 11 9 8 7 7 7 7 8 10 12 12 13 14 14 13 12 12 12 12 12 13 13 13 13 14 15 16 17 18 18 19 20 21
24 27 28 26 23 20 18 17 19 19 19 18 17 15 14 14 15 16 18 20 22 24 25 25 25 24 23 21 21 22 21 20 19 19 19 18 17 16 16 15 13 12 12 13 14 14 15 15 15 14 14 14 13 11 9 8 8 8 8 9 10 12 12 13 13 14 13 13 12 13 13 13 12 13 13 14 15 15 16 17 18 19 20 21 22
20 20 23 22 21 19 18 17 18 19 19 18 16 14 14 15 15 16 18 20 23 24 25 26 25 24 22 20 20 21 20 19 19 19 19 19 19 18 17 16 14 13 13 13 14 14 14 15 15 14 14 13 12 12 11 10 10 9 10 10 11 12 12 12 13 13 13 13 13 13 12 12 12 13 14 14 15 15 16 18 19 21 22 22 22
19 18 18 19 20 20 18 17 18 19 18 17 16 15 15 15 15 16 18 21 23 25 26 26 25 24 22 20 20 19 18 17 18 19 19 20 19 19 18 17 16 14 14 14 14 14 14 15 15 15 15 13 12 12 12 11 11 11 11 11 11 12 12 12 13 13 12 12 12 12 12 12 12 13 14 14 15 16 18 19 20 21 22 22 23
21 19 17 18 18 18 18 18 19 19 18 17 16 15 15 16 16 17 19 21 24 26 28 27 26 24 22 19 19 18 16 17 18 18 19 20 20 20 19 18 17 16 15 15 15 15 14 14 15 15 14 12 12 13 14 14 13 13 12 12 12 11 11 12 11 11 12 12 12 12 12 12 13 13 14 15 16 18 19 20 21 22 22 23 24
22 20 19 17 17 16 17 18 19 19 18 17 16 16 16 16 17 18 20 22 25 27 28 28 26 24 22 19 19 18 16 16 17 18 19 20 20 20 20 19 18 17 16 15 16 15 15 14 14 14 12 12 13 14 14 15 15 14 14 14 12 11 12 12 10 10 11 11 12 12 13 13 13 13 14 16 17 18 20 21 22 23 24 25 26
24 22 20 18 16 16 16 19 20 19 19 18 17 17 17 17 18 20 21 23 26 28 29 28 26 24 23 21 19 18 17 16 17 18 19 20 20 20 20 19 19 18 16 15 16 16 15 15 14 12 12 14 15 14 14 15 15 14 14 13 12 11 12 12 11 11 11 11 12 13 13 13 13 14 15 16 17 19 20 22 23 24 25 26 27
25 23 21 19 17 16 17 19 20 20 19 19 19 19 19 19 20 21 23 25 27 28 29 27 26 25 24 23 21 18 17 16 17 17 18 19 20 20 19 19 19 18 17 15 16 16 15 14 15 14 14 15 15 14 15 16 15 15 15 14 13 12 12 13 12 12 12 12 12 13 13 13 14 14 15 16 18 19 21 23 24 25 26 27 27
24 23 21 19 18 18 19 20 20 20 20 20 21 20 20 21 22 23 25 26 28 29 29 27 25 25 25 25 23 20 18 16 16 17 18 19 20 20 20 19 19 19 18 16 15 15 15 14 14 14 14 14 15 15 16 17 16 16 16 16 15 13 13 14 13 13 12 12 12 12 13 13 14 15 16 17 19 21 22 24 25 26 27 27 27
22 21 20 19 19 20 21 22 22 22 21 23 23 22 23 24 24 26 27 27 28 29 29 27 26 26 26 26 24 22 20 17 16 16 18 19 20 20 20 19 18 19 19 17 15 15 14 14 13 13 14 15 15 15 16 17 16 16 16 17 16 14 14 14 13 13 13 12 12 13 13 13 14 16 17 18 20 22 24 25 26 27 27 28 27
21 21 22 22 23 24 25 25 25 25 24 25 25 25 25 26 27 28 28 28 29 29 28 28 27 27 26 26 24 23 21 19 17 17 18 20 21 22 22 20 19 19 19 18 17 16 15 14 14 13 14 14 14 15 17 17 16 16 17 17 17 15 14 14 13 12 12 13 13 13 14 14 16 18 18 20 21 24 25 27 27 27 28 27 27
27 28 28 27 28 28 29 29 29 28 27 27 28 27 28 29 29 29 29 29 28 28 28 28 29 29 27 26 24 23 22 21 19 19 20 22 24 26 24 21 19 17 17 19 18 15 15 14 14 14 14 14 15 16 17 18 17 17 17 17 18 16 14 14 13 12 12 13 13 13 14 15 17 19 20 21 22 24 26 27 27 27 27 27 27
35 35 34 32 32 32 32 31 31 30 28 29 30 30 30 31 31 30 29 29 28 27 28 29 30 30 28 26 24 23 21 20 20 20 22 24 26 28 24 20 17 13 12 16 18 15 15 14 14 14 14 14 16 16 17 19 18 18 18 17 17 16 14 13 12 12 11 12 13 13 15 16 17 19 21 23 24 26 27 28 28 28 28 28 28
38 37 37 36 35 34 34 33 32 31 30 30 31 31 32 32 31 30 29 28 27 27 28 30 31 31 28 25 23 21 19 18 19 20 21 23 25 25 20 18 17 15 12 13 15 15 13 13 13 13 14 14 16 17 18 19 19 19 18 17 16 15 14 13 12 12 11 11 12 12 14 16 17 19 22 25 27 28 28 28 29 28 29 28 28
39 37 38 37 36 35 34 34 33 32 31 30 31 32 33 33 31 29 28 27 27 28 29 30 31 30 27 25 21 19 18 18 18 21 22 23 24 22 19 19 17 15 15 14 15 15 13 13 13 13 14 15 16 17 17 19 19 18 18 17 16 14 13 13 12 13 12 11 12 12 13 14 16 19 23 26 28 29 29 29 29 28 28 27 27
41 39 38 38 36 35 34 33 33 32 31 30 31 32 33 32 30 29 28 27 28 29 29 30 29 28 25 22 19 18 18 19 20 22 22 24 25 22 21 22 18 16 17 15 15 16 14 14 14 14 15 15 16 16 17 18 18 18 17 17 16 15 13 12 12 13 13 12 12 12 13 15 17 20 23 25 27 28 28 29 28 28 27 26 25
43 40 39 38 36 34 32 32 32 31 30 31 32 33 33 32 30 28 28 28 29 29 29 28 27 25 22 19 17 17 18 20 21 22 22 24 24 22 20 21 21 20 18 15 13 14 15 15 14 15 16 16 16 16 17 18 17 17 16 15 16 15 14 13 12 12 12 13 13 14 15 17 19 22 24 25 25 26 26 26 26 26 25 26 26
44 41 39 37 34 32 31 31 32 31 30 31 32 33 33 31 30 29 29 30 29 28 27 26 24 22 19 18 17 17 18 19 20 21 22 23 22 21 20 20 21 20 19 18 16 14 14 15 14 15 17 17 17 16 17 18 16 16 16 15 14 14 14 13 13 13 13 13 14 16 17 19 21 23 24 25 25 24 24 23 23 23 23 25 26
43 41 39 36 32 30 29 31 31 30 30 31 33 34 33 31 30 29 30 30 29 27 26 24 22 20 19 18 18 18 19 19 20 21 22 22 21 20 20 20 20 21 21 20 18 15 15 14 14 16 17 18 17 17 17 17 16 15 16 15 14 14 13 13 13 13 13 13 14 16 18 21 23 24 24 24 24 23 22 21 21 22 23 24 26
42 40 38 34 30 28 29 31 30 30 31 32 34 34 33 31 30 30 31 30 28 25 24 23 22 21 20 19 19 19 19 19 20 21 22 21 19 19 19 19 18 20 20 18 15 14 13 13 14 16 18 18 18 18 18 17 16 15 15 15 14 13 13 12 12 12 12 14 15 17 20 22 23 23 24 24 23 22 21 21 22 22 23 25 27
41 38 35 32 29 27 28 30 30 30 32 33 34 35 33 31 30 31 30 28 26 24 23 22 22 21 21 20 19 19 20 20 20 21 22 20 18 18 19 18 17 17 18 18 16 14 14 14 15 16 18 19 18 18 18 16 16 16 15 15 14 13 12 12 12 12 13 14 16 19 21 22 23 23 24 23 22 21 21 21 22 23 25 27 29
39 35 32 28 27 26 28 31 31 32 33 34 35 35 33 31 31 31 29 27 25 23 22 22 22 22 22 21 20 21 22 21 20 20 20 18 18 19 20 19 18 17 17 17 17 17 16 16 15 16 18 19 19 18 18 17 16 16 16 15 14 12 11 11 12 12 14 16 19 21 22 22 22 22 22 21 20 20 21 22 23 25 27 29 31
35 32 28 25 25 26 29 31 32 33 34 34 35 34 33 31 31 30 28 26 24 22 22 22 22 22 21 21 21 23 23 22 21 20 19 17 18 20 21 20 19 18 17 16 16 16 16 16 15 17 18 18 19 18 18 18 17 16 15 14 14 12 10 11 12 13 16 18 20 22 22 22 22 21 20 19 20 20 21 22 25 27 29 30 31
31 27 24 22 24 27 31 32 33 33 33 34 34 33 32 30 29 28 27 24 23 22 22 22 22 22 21 21 23 24 24 23 22 21 19 18 18 19 21 20 18 19 18 16 15 16 16 16 16 17 18 18 19 18 18 18 18 16 15 13 13 13 11 11 13 15 18 20 21 21 21 21 21 20 19 19 20 21 22 24 26 27 28 30 32
28 25 22 21 24 29 32 33 33 33 33 34 34 32 31 28 27 26 25 23 22 22 22 22 22 22 22 23 24 25 24 23 23 21 20 20 20 20 20 19 18 19 18 17 17 18 18 17 17 18 18 18 19 19 18 18 18 16 14 12 12 13 13 14 15 17 19 20 20 20 20 20 19 19 19 20 21 21 23 24 26 27 29 31 33
26 22 20 21 27 31 32 32 32 33 33 33 32 30 28 26 25 24 23 22 22 23 23 22 22 22 23 24 25 25 24 24 23 22 22 21 20 20 19 18 18 19 19 19 20 19 17 17 18 19 19 19 20 20 19 18 17 15 13 12 12 13 14 16 18 19 19 19 20 20 19 19 19 19 20 20 21 22 23 25 26 29 31 32 33
24 21 21 24 28 31 31 31 32 32 32 31 29 27 25 24 23 22 22 23 22 22 22 22 23 23 23 25 26 26 26 25 23 23 22 22 20 19 17 17 18 19 20 21 20 18 18 18 17 18 19 20 20 19 19 19 18 16 13 12 13 14 15 17 18 19 20 19 18 18 18 18 18 19 20 21 21 22 24 26 29 31 31 31 31
25 23 23 25 28 29 30 30 30 30 30 29 27 24 23 23 22 22 23 22 21 21 21 22 24 24 25 26 27 26 25 24 23 23 22 21 20 19 18 17 18 18 20 20 19 18 18 17 18 18 19 19 19 19 19 20 19 17 13 12 14 15 15 16 17 18 19 18 18 18 18 17 17 18 20 21 22 24 26 28 29 29 28 29 29
26 24 25 26 27 28 29 29 29 29 28 27 25 24 23 22 22 23 23 22 22 22 23 24 24 24 25 27 27 26 24 24 23 23 22 21 20 20 19 18 18 19 20 20 19 18 18 18 18 17 17 17 18 19 20 21 19 16 14 13 14 14 14 15 16 17 17 17 17 18 18 18 18 19 20 21 23 25 26 27 26 26 27 28 28
27 26 26 27 27 28 29 29 29 28 28 27 25 24 23 22 23 23 24 24 24 25 25 24 24 24 25 26 26 24 23 23 23 22 21 21 21 21 20 19 19 21 22 22 20 19 17 16 16 15 15 16 18 20 22 21 18 15 14 14 14 14 14 15 15 15 16 17 17 17 18 19 20 21 21 22 23 25 25 25 25 26 27 28 28
28 27 26 26 28 29 29 29 29 29 28 26 25 24 23 23 24 24 24 25 25 26 25 24 25 25 25 25 24 22 21 21 20 21 22 22 21 21 21 20 19 22 23 21 19 17 15 14 14 14 15 17 19 21 21 19 15 14 13 13 13 14 15 16 16 16 16 17 17 17 17 19 20 21 22 22 23 24 24 24 25 26 27 28 29
Wind_Direction
134 121 108 105 97 95 90 86 81 73 68 57 44 30 20 13 5 358 354 352 351 350 350 351 350 349 349 351 353 355 356 355 357 357 358 359 360 2 4 5 4 9 16 18 18 22 31 36 40 48 51 52 53 54 54 53 52 52 50 50 48 47 46 46 45 45 44 43 41 38 34 33 31 28 24 21 18 12 5 1 359 355 349 340 332
137 126 113 109 101 98 93 89 83 73 62 49 37 27 18 10 4 358 354 352 352 352 352 353 353 351 352 353 353 353 353 353 355 356 356 356 358 2 6 7 6 4 10 15 13 14 18 22 26 32 40 41 43 44 46 47 47 46 46 45 44 43 41 41 40 40 40 39 38 34 31 27 24 23 18 15 13 6 359 350 345 340 333 329 327
138 123 115 112 106 102 96 89 79 68 54 43 32 23 15 8 2 358 355 353 352 353 355 356 356 355 355 355 354 351 349 350 352 355 355 355 357 1 6 9 8 4 4 8 9 11 11 15 17 22 29 31 34 35 36 37 39 41 42 43 43 43 41 39 39 38 37 36 34 31 30 24 18 17 9 5 4 357 353 346 339 334 330 329 329
132 120 116 114 109 103 94 85 73 62 50 40 32 23 16 10 4 359 356 354 353 353 356 359 0 359 358 357 355 351 347 347 349 353 353 354 355 359 5 8 9 6 2 359 358 360 5 9 10 15 19 22 23 23 24 25 28 31 34 37 38 39 39 37 36 34 33 34 31 28 24 14 12 12 359 351 349 346 344 340 336 332 329 329 327
123 119 118 115 112 105 95 85 71 58 48 38 31 26 19 14 7 0 357 356 357 357 359 2 3 1 360 359 356 351 346 343 344 349 350 352 354 356 2 7 7 5 4 359 352 346 349 354 358 2 5 9 6 6 9 10 11 11 14 14 18 20 22 24 26 24 23 25 20 21 10 354 11 4 347 345 343 340 338 334 333 329 327 325 323
119 120 121 120 114 106 97 84 68 52 40 31 25 21 18 14 7 1 357 358 1 2 3 5 4 1 0 360 357 352 346 342 341 344 345 347 350 353 358 5 6 2 2 2 358 351 344 343 343 344 347 350 348 348 346 345 343 338 335 331 336 343 351 360 7 4 354 2 2 357 342 346 3 348 335 343 341 340 339 337 335 332 329 326 325
118 126 128 126 117 109 97 79 58 41 27 20 15 12 12 9 5 360 358 359 2 3 5 5 4 1 359 360 358 352 346 341 338 340 340 342 343 348 354 1 3 360 359 360 2 0 355 349 344 338 333 331 328 327 326 326 324 320 314 308 312 316 326 332 342 343 320 322 337 326 332 349 343 324 328 339 339 340 338 337 336 334 333 331 330
125 134 137 136 124 113 94 66 42 27 17 11 7 7 6 5 2 358 357 359 1 3 3 4 3 359 358 359 358 353 345 340 336 337 336 337 339 341 349 357 0 359 357 357 0 2 2 359 353 344 330 321 315 315 316 318 319 316 311 309 314 319 334 334 338 342 318 317 321 325 333 330 309 309 325 330 335 335 335 335 335 335 335 334 332
134 142 154 154 138 125 81 36 20 12 9 5 2 3 3 2 359 355 355 357 359 1 1 2 1 358 356 356 358 354 346 340 335 334 332 332 334 336 342 352 358 357 356 356 358 1 3 3 1 355 343 329 318 316 315 319 322 320 320 328 344 360 5 360 357 358 335 319 321 338 326 304 300 315 331 333 336 338 339 340 339 340 337 335 331
143 154 177 183 184 200 332 350 355 356 360 360 358 360 360 359 356 354 354 355 357 358 359 360 360 356 354 353 355 355 348 340 335 331 328 328 330 332 337 345 354 356 355 354 356 359 1 3 4 2 358 350 339 333 330 332 334 337 351 3 16 21 14 15 18 20 27 15 15 20 360 347 351 354 356 350 351 354 354 353 351 349 346 343 339
169 163 198 211 219 248 279 315 332 339 348 353 354 357 357 356 353 352 352 354 355 356 357 358 359 355 352 351 351 354 350 342 335 330 325 325 327 328 333 339 348 353 354 354 355 356 359 2 3 3 4 2 358 355 352 353 355 359 11 15 17 18 18 22 29 30 30 33 35 33 31 30 24 17 16 9 9 12 10 7 4 0 356 353 351
216 195 214 230 231 252 268 295 315 323 333 343 350 355 355 353 351 349 351 354 354 355 355 356 357 353 350 349 348 350 351 345 337 330 323 322 325 326 330 334 342 350 352 352 353 354 356 358 360 1 4 6 5 5 7 8 7 8 11 11 10 14 20 25 38 40 34 37 36 36 45 43 32 28 27 20 20 20 17 15 11 7 2 358 357
237 227 233 245 243 256 271 289 303 312 322 334 344 352 353 350 348 346 347 352 353 353 353 353 355 352 348 346 345 346 349 347 339 331 321 319 322 323 327 331 337 345 350 350 350 352 352 354 356 358 1 6 9 11 13 13 10 8 8 7 7 14 18 25 42 44 37 40 37 34 41 42 32 28 27 21 21 21 16 12 9 5 358 355 352
251 245 243 253 256 263 274 285 296 306 315 329 340 348 350 347 345 343 343 348 351 351 352 351 352 351 347 344 342 343 345 345 341 333 321 316 317 319 324 328 333 339 346 348 348 350 351 351 353 355 358 2 7 10 11 11 9 6 4 3 2 6 11 20 35 38 34 34 32 31 33 36 29 22 19 16 17 16 10 6 4 1 356 354 352
257 256 250 256 264 267 275 283 294 302 311 324 335 344 346 343 341 340 339 343 347 349 351 349 349 349 345 342 340 339 340 341 341 336 322 313 312 315 320 324 329 335 340 345 347 348 348 348 348 351 353 355 358 360 2 1 0 357 353 354 354 356 3 12 20 23 24 25 24 25 28 31 25 18 15 15 16 13 8 8 8 6 3 1 360
255 261 259 261 267 271 276 285 294 300 307 317 328 337 340 338 336 336 336 338 342 347 350 348 347 346 343 340 338 337 337 337 338 336 325 312 307 310 315 319 324 331 335 338 342 344 345 344 342 342 344 347 345 341 347 349 349 346 343 345 348 352 358 6 12 11 11 17 21 23 25 27 23 19 18 17 16 12 10 11 12 10 8 6 4
249 261 267 269 273 275 277 284 292 297 303 310 319 329 334 333 331 333 333 335 338 344 348 346 345 343 340 336 335 335 334 333 334 335 327 312 303 304 308 313 319 326 330 332 335 337 340 341 341 337 335 339 341 336 332 340 343 342 343 345 350 353 357 5 8 9 12 14 19 24 26 25 23 20 19 17 14 12 10 9 9 9 6 5 3
252 263 272 275 278 277 278 283 288 293 299 304 311 321 328 328 328 330 331 332 335 342 346 344 342 340 337 332 329 331 331 329 329 333 329 315 303 299 302 306 312 321 325 326 327 330 334 339 342 339 334 332 337 337 327 328 336 343 347 348 352 355 357 0 0 6 14 15 19 25 25 23 21 18 17 15 12 10 8 5 5 4 2 0 358
258 265 272 276 279 279 279 284 288 292 295 298 304 315 323 323 324 327 329 329 332 339 343 342 339 336 333 329 325 325 325 324 325 330 329 319 307 299 299 300 305 315 319 319 321 323 328 334 340 341 338 332 332 334 328 323 328 339 347 349 352 354 357 355 355 3 9 14 21 24 21 19 17 14 14 12 9 7 5 2 360 358 357 355 353
260 263 269 272 276 279 280 285 290 291 292 293 298 311 320 320 322 325 326 328 330 335 340 340 335 332 329 326 323 322 322 321 322 327 328 321 312 302 297 297 301 308 313 313 316 320 324 331 337 341 341 337 334 331 327 326 326 334 344 349 350 352 357 353 353 1 4 12 19 18 15 12 10 9 9 8 7 4 1 358 355 354 353 350 348
261 259 262 267 272 275 280 285 288 290 292 293 298 311 317 317 321 322 324 327 328 332 337 336 332 329 326 323 321 320 321 320 322 325 325 322 316 307 297 296 298 301 305 307 312 317 322 329 334 339 342 339 337 331 327 328 327 331 339 344 347 350 355 352 352 357 360 6 10 9 7 4 3 2 2 4 2 360 357 354 352 350 349 347 344
264 256 255 261 267 272 277 282 285 288 290 295 303 311 315 317 318 320 324 326 325 329 334 332 327 325 323 321 319 320 322 321 323 325 324 321 318 312 300 294 294 293 296 300 305 311 317 324 330 335 339 339 337 333 327 325 326 329 333 338 344 348 351 349 349 353 355 358 359 0 359 357 356 354 356 358 356 355 353 351 350 348 346 344 341
265 254 248 255 263 269 275 278 282 284 287 294 303 309 314 315 316 320 324 324 323 326 330 327 323 320 319 319 319 321 323 322 324 324 323 321 318 315 305 295 290 287 288 291 296 302 311 319 325 330 333 337 337 331 327 326 326 326 329 334 340 346 347 345 347 349 349 349 352 353 352 350 348 348 350 350 350 350 350 349 347 345 342 338 336
266 260 252 255 263 270 275 278 278 281 286 293 301 308 311 312 316 320 323 321 320 323 325 323 319 316 316 318 318 321 323 321 323 322 320 320 318 316 309 298 288 283 281 283 289 296 306 314 321 325 327 333 335 331 329 326 322 323 327 332 339 346 341 338 344 344 339 342 345 344 342 343 343 344 346 345 346 347 346 345 342 339 336 334 334
269 269 264 262 266 271 275 276 276 279 285 293 301 307 309 312 317 319 320 318 318 320 320 319 314 311 313 315 316 319 320 319 320 319 318 320 319 316 312 302 289 281 278 280 285 291 300 307 315 322 322 330 338 338 334 326 322 325 327 332 339 342 334 332 339 335 330 336 337 336 335 338 340 341 342 342 343 343 341 339 336 335 333 333 334
270 269 268 267 268 272 275 275 276 280 286 296 303 305 308 313 316 317 316 315 316 316 315 314 310 308 309 310 313 316 317 316 316 316 318 319 319 317 312 303 290 281 279 280 283 289 296 302 311 319 322 329 334 334 335 329 324 322 324 329 334 330 324 324 327 324 324 330 330 328 330 333 336 337 337 338 339 338 336 335 334 333 333 333 333
270 269 268 269 271 273 273 273 277 283 292 300 303 303 307 312 313 313 312 312 313 311 311 309 306 305 305 305 309 312 311 311 311 312 316 318 318 317 312 304 292 283 281 282 284 288 293 299 303 309 316 320 322 324 328 327 321 320 324 325 321 317 316 316 318 319 319 324 323 324 327 330 331 332 334 335 334 333 333 333 332 331 331 331 331
271 271 270 270 273 273 271 272 279 288 296 300 300 302 306 309 310 309 309 309 309 307 305 303 302 302 302 303 306 307 306 305 305 308 313 316 316 315 310 303 294 285 281 281 284 287 291 295 297 302 308 311 314 320 321 317 318 327 333 326 316 316 313 312 314 314 315 318 319 320 323 324 325 328 330 330 330 330 330 330 329 329 329 330 329
272 272 273 275 275 275 274 275 282 290 295 296 297 301 304 305 306 305 305 305 304 303 301 299 298 298 299 302 304 303 301 299 300 303 308 311 312 311 307 301 294 284 278 277 280 285 289 293 297 303 304 305 311 317 315 312 318 330 333 327 322 318 311 308 309 308 310 312 313 315 316 318 320 322 324 326 327 328 329 328 328 329 328 328 328
266 271 275 278 278 276 275 278 285 290 292 293 296 299 300 301 302 301 301 301 300 298 296 295 294 295 298 299 300 299 298 295 295 299 304 308 309 305 300 297 290 282 279 277 276 279 284 291 297 303 301 304 310 312 312 312 319 327 327 326 324 318 308 305 306 305 306 306 307 308 309 313 315 317 321 325 328 328 328 328 329 329 328 327 327
259 271 277 278 277 276 276 280 285 288 290 292 294 296 296 297 297 297 297 296 295 294 292 292 292 293 295 296 296 294 293 293 294 297 302 306 307 302 295 292 287 280 277 273 272 275 280 288 294 298 302 307 310 310 312 314 318 322 323 324 321 317 308 302 302 301 301 301 302 304 306 311 313 316 321 325 328 327 327 328 328 328 327 327 327
267 275 277 278 277 276 278 281 284 286 288 290 291 292 293 293 293 293 293 292 291 290 289 289 291 293 294 295 293 291 291 293 296 301 308 311 313 306 291 282 279 271 267 265 266 272 277 284 290 295 300 304 306 310 313 313 315 319 323 324 320 315 307 302 301 297 295 296 297 301 304 309 313 317 322 325 326 326 326 327 328 327 327 328 328
272 275 276 278 278 277 278 280 282 284 286 288 289 289 289 290 290 290 290 289 288 287 288 290 292 293 295 295 292 291 290 293 301 308 313 312 313 311 292 280 282 271 264 264 263 269 275 282 289 293 296 299 303 309 312 311 314 318 322 324 319 313 307 302 298 293 292 294 298 304 308 312 317 320 322 324 324 325 326 327 328 329 329 330 330
270 273 275 277 278 278 278 280 282 283 285 286 286 286 286 287 287 288 288 287 287 286 288 290 292 294 296 296 293 292 292 298 305 304 305 301 304 310 293 280 288 285 282 278 270 272 278 284 289 293 294 294 299 307 311 311 315 319 322 323 319 312 306 300 293 288 283 284 292 302 310 317 320 322 323 324 325 327 328 329 330 330 331 331 331
269 271 273 274 276 277 279 281 282 282 283 282 282 282 282 284 285 286 286 285 286 286 288 290 292 295 296 297 296 297 298 298 296 292 296 297 301 308 291 279 286 281 279 285 283 283 285 287 291 293 293 294 299 306 310 311 314 318 321 321 316 309 301 295 290 288 285 282 288 296 304 310 314 318 321 324 327 329 330 331 330 330 330 330 330
269 270 271 273 274 275 279 282 281 280 280 278 278 278 279 281 283 284 284 284 285 286 289 290 292 296 299 302 302 300 296 292 293 296 301 302 304 306 294 287 291 280 270 273 279 283 288 290 292 294 293 297 302 306 308 309 312 317 319 316 311 305 298 291 288 288 291 293 295 299 303 307 312 317 321 324 327 328 329 328 328 328 328 330 332
268 270 270 272 272 274 278 280 278 276 275 274 274 275 276 279 281 282 282 283 285 287 288 289 293 299 302 304 301 297 296 296 299 302 301 299 299 301 296 291 292 286 274 273 278 279 284 288 291 294 295 298 302 305 306 305 311 315 313 308 303 300 295 292 290 290 294 299 301 305 308 313 317 321 324 326 327 327 326 326 326 327 329 333 335
267 270 270 271 272 274 276 275 273 271 270 270 271 272 274 277 279 281 282 283 285 287 288 291 296 299 300 299 299 299 299 299 299 301 299 297 299 300 298 293 290 286 278 280 288 284 281 284 287 292 295 297 300 303 302 303 310 310 306 304 297 293 291 291 293 294 297 301 306 310 315 319 322 325 327 327 326 325 324 324 326 330 332 334 335
267 269 270 271 272 273 272 269 268 266 266 267 268 270 272 275 278 280 281 283 285 288 290 294 297 298 299 300 302 300 297 297 299 300 299 299 302 301 298 293 286 283 278 280 289 284 276 279 284 289 292 294 297 299 299 302 306 303 302 302 294 289 289 291 293 296 300 305 308 312 316 321 324 326 326 324 324 324 325 327 330 332 333 334 334
267 267 269 270 271 270 266 263 261 261 262 263 266 268 271 274 277 279 280 283 286 290 292 296 299 302 303 303 303 298 295 299 300 299 299 300 302 300 298 297 288 282 277 277 285 280 271 278 284 287 289 292 295 296 297 300 301 300 299 298 292 289 289 290 293 296 301 304 307 312 317 322 325 324 323 323 323 325 327 330 331 332 333 334 334
266 267 269 270 269 266 260 257 255 256 258 260 263 266 271 274 277 279 281 285 289 291 295 299 303 305 305 303 300 297 297 300 300 299 300 300 301 300 301 301 294 285 278 276 277 273 273 282 284 285 288 291 293 294 296 298 298 298 296 294 291 289 288 288 291 294 298 301 307 313 318 322 322 321 321 322 323 326 328 329 330 331 332 333 333
264 267 269 267 264 259 253 251 251 252 253 256 261 265 270 273 276 279 283 287 290 294 301 305 307 306 305 303 299 298 300 300 299 297 297 298 300 302 302 298 292 286 280 276 274 273 279 284 282 284 288 291 293 294 296 296 295 295 295 294 290 287 287 287 288 292 297 304 309 314 318 319 318 318 319 321 323 326 327 328 330 331 333 333 334
264 266 266 263 257 251 247 247 247 248 250 254 259 264 268 271 275 280 283 288 295 303 307 307 306 306 304 303 301 301 301 298 296 295 295 298 300 301 300 295 290 284 277 273 276 282 286 285 282 285 288 291 293 293 294 294 292 292 290 289 286 283 281 281 287 294 300 307 311 315 317 315 315 317 318 321 324 326 326 328 330 333 334 335 336
264 263 261 258 251 245 243 243 244 246 250 254 258 262 266 271 276 281 285 292 303 308 308 306 305 304 304 304 303 301 299 295 294 292 292 295 297 297 296 294 288 280 273 270 276 287 292 288 283 284 288 290 291 290 290 291 291 289 286 284 285 288 288 285 289 297 302 307 311 312 312 311 314 317 320 323 325 325 325 328 332 334 335 336 337
261 258 254 250 244 241 241 241 243 246 250 254 258 261 265 271 278 283 288 296 304 306 305 305 304 303 304 304 302 299 296 294 293 290 289 292 294 294 295 294 286 277 273 271 277 287 292 288 282 280 284 287 287 288 288 289 288 285 284 282 284 290 292 292 294 298 301 305 307 308 309 312 316 319 322 324 324 323 325 330 333 334 335 336 337
257 254 247 242 239 239 240 240 243 246 250 254 257 261 267 274 281 285 291 297 301 301 301 302 302 303 304 303 300 298 295 293 291 289 289 292 295 295 293 290 281 274 273 274 278 284 288 288 283 279 282 286 286 287 287 285 282 277 272 269 272 277 281 287 294 297 300 302 304 307 311 316 318 320 322 323 322 323 328 331 332 333 335 336 336
253 248 241 238 238 239 239 240 243 247 250 254 257 263 271 278 283 287 292 297 297 299 301 301 301 302 304 304 301 297 293 290 290 288 287 291 294 293 288 283 279 276 273 273 275 280 284 285 282 280 283 285 285 286 285 282 279 273 265 259 261 266 272 281 291 295 298 301 305 309 313 316 318 320 321 321 322 326 330 332 333 335 337 337 335
247 242 236 236 236 238 240 240 243 247 251 255 259 265 273 279 284 288 292 295 297 301 305 304 303 303 303 304 302 296 289 286 286 285 284 289 292 287 281 279 281 280 275 272 272 276 280 278 279 282 284 285 285 285 282 281 279 274 267 261 261 266 273 282 288 292 296 302 308 311 312 313 316 318 320 321 326 330 332 333 336 337 336 333 330
243 239 234 234 235 236 238 240 243 248 251 255 261 266 272 278 284 287 290 293 296 302 305 306 306 304 302 302 302 297 289 284 283 283 284 289 289 284 278 276 280 285 281 275 272 275 275 275 280 283 283 284 285 284 281 280 278 274 269 267 267 272 279 283 287 291 298 305 310 313 314 315 318 321 323 326 330 333 333 335 336 334 330 327 325
241 238 236 236 237 237 238 240 244 248 252 256 261 266 271 277 282 285 289 292 294 297 299 303 305 303 301 300 300 297 293 287 283 280 282 287 289 284 278 276 279 283 281 276 274 275 272 274 280 280 279 282 282 281 279 278 276 272 270 271 274 279 283 285 290 297 303 307 311 315 316 318 322 324 328 332 332 332 332 331 330 328 325 323 322
242 238 238 239 239 240 240 243 246 249 252 256 260 265 270 275 280 283 287 290 292 293 295 299 301 301 301 300 297 295 294 291 284 278 280 286 289 284 278 278 277 276 276 274 270 269 266 268 273 275 279 282 280 278 276 275 273 269 268 273 278 283 287 292 298 304 308 311 314 316 317 320 323 325 330 333 331 329 328 326 326 324 322 321 322
Height
5901 5902 5901 5901 5901 5902 5902 5903 5903 5903 5903 5902 5902 5902 5901 5900 5900 5899 5898 5897 5895 5894 5893 5892 5890 5889 5887 5886 5885 5884 5883 5882 5881 5880 5879 5879 5878 5878 5877 5876 5875 5874 5874 5873 5872 5872 5871 5871 5870 5870 5870 5869 5868 5868 5867 5867 5866 5865 5865 5864 5864 5864 5864 5863 5863 5863 5862 5862 5862 5861 5861 5861 5861 5860 5860 5860 5859 5859 5859 5858 5858 5858 5858 5858 5857
5901 5901 5901 5901 5901 5902 5902 5903 5903 5903 5903 5902 5902 5901 5901 5900 5899 5899 5898 5896 5895 5894 5893 5892 5890 5888 5887 5886 5885 5883 5882 5881 5881 5880 5879 5879 5879 5878 5877 5876 5876 5875 5874 5874 5873 5872 5872 5871 5871 5870 5870 5869 5869 5868 5867 5867 5866 5866 5865 5865 5864 5864 5864 5863 5863 5863 5862 5862 5861 5861 5861 5861 5860 5860 5860 5859 5859 5859 5859 5858 5858 5858 5858 5858 5857
5900 5900 5900 5900 5901 5901 5902 5902 5903 5903 5902 5902 5902 5901 5901 5900 5899 5898 5897 5896 5895 5894 5893 5892 5890 5888 5887 5885 5884 5883 5882 5881 5880 5880 5879 5879 5879 5878 5877 5876 5876 5875 5875 5874 5873 5873 5872 5872 5871 5871 5870 5870 5869 5868 5868 5867 5866 5866 5865 5865 5864 5864 5864 5863 5863 5862 5862 5861 5861 5861 5860 5860 5860 5860 5859 5859 5859 5859 5858 5858 5858 5858 5858 5858 5857
5900 5900 5900 5900 5901 5901 5902 5902 5902 5902 5902 5902 5901 5901 5900 5900 5899 5898 5897 5896 5895 5894 5893 5892 5890 5888 5887 5885 5884 5883 5882 5881 5880 5880 5879 5879 5879 5878 5878 5877 5876 5876 5875 5874 5874 5873 5873 5872 5872 5871 5871 5870 5870 5869 5868 5867 5867 5866 5865 5865 5864 5864 5864 5863 5863 5862 5862 5861 5861 5861 5860 5860 5860 5859 5859 5859 5859 5859 5858 5858 5858 5858 5858 5858 5857
5900 5900 5900 5900 5900 5901 5901 5902 5902 5902 5902 5902 5901 5901 5900 5899 5899 5898 5897 5896 5896 5894 5893 5891 5889 5888 5886 5885 5884 5883 5882 5881 5881 5880 5880 5879 5879 5878 5878 5877 5876 5876 5875 5875 5874 5873 5873 5872 5872 5872 5871 5871 5870 5869 5869 5868 5867 5866 5865 5865 5864 5864 5863 5863 5863 5862 5862 5862 5861 5861 5861 5860 5860 5860 5860 5860 5859 5859 5859 5859 5858 5858 5858 5858 5857
5899 5899 5899 5900 5900 5900 5901 5901 5902 5902 5902 5901 5901 5900 5900 5899 5898 5897 5897 5896 5895 5893 5892 5890 5889 5888 5886 5885 5884 5883 5882 5881 5881 5880 5880 5879 5879 5879 5878 5877 5877 5876 5876 5875 5874 5874 5873 5872 5872 5872 5871 5871 5870 5870 5869 5868 5867 5866 5865 5865 5864 5864 5863 5863 5863 5863 5862 5862 5861 5861 5861 5860 5860 5860 5860 5860 5860 5859 5859 5859 5859 5858 5858 5858 5857
5898 5899 5899 5899 5900 5900 5900 5901 5901 5901 5901 5901 5901 5900 5899 5899 5898 5897 5896 5895 5894 5892 5891 5890 5889 5887 5886 5885 5884 5883 5882 5882 5881 5881 5880 5880 5879 5879 5878 5877 5877 5877 5876 5875 5875 5874 5873 5873 5872 5872 5871 5871 5870 5870 5869 5868 5867 5866 5865 5865 5864 5864 5863 5863 5863 5863 5862 5862 5862 5861 5861 5861 5861 5861 5860 5860 5860 5860 5860 5859 5859 5859 5858 5858 5858
5898 5898 5899 5899 5899 5899 5900 5900 5900 5901 5901 5901 5900 5900 5899 5898 5897 5897 5896 5895 5893 5892 5890 5889 5889 5887 5886 5885 5884 5883 5883 5882 5881 5881 5880 5880 5879 5879 5878 5878 5877 5877 5876 5876 5875 5874 5874 5873 5872 5872 5871 5871 5870 5870 5869 5868 5867 5866 5865 5864 5864 5864 5863 5863 5863 5863 5862 5861 5862 5861 5861 5861 5861 5861 5861 5861 5860 5860 5860 5860 5859 5859 5858 5858 5857
5897 5898 5898 5898 5898 5899 5899 5900 5900 5900 5900 5900 5900 5899 5898 5897 5897 5896 5895 5894 5893 5891 5890 5889 5888 5887 5886 5885 5884 5883 5883 5882 5881 5881 5881 5880 5879 5879 5878 5878 5877 5877 5876 5876 5875 5875 5874 5873 5872 5872 5871 5871 5870 5869 5869 5868 5867 5866 5865 5865 5864 5864 5863 5863 5863 5863 5863 5862 5862 5862 5862 5862 5862 5861 5861 5861 5861 5860 5860 5860 5859 5859 5858 5858 5857
5897 5897 5898 5898 5898 5898 5899 5899 5899 5900 5900 5900 5899 5899 5898 5897 5896 5895 5895 5893 5892 5891 5890 5889 5888 5887 5886 5885 5884 5883 5883 5882 5882 5881 5881 5880 5880 5879 5878 5878 5877 5877 5877 5876 5875 5875 5874 5874 5873 5872 5871 5871 5870 5869 5869 5868 5867 5866 5866 5865 5865 5864 5864 5864 5863 5863 5863 5863 5862 5862 5862 5862 5862 5861 5861 5861 5860 5860 5860 5859 5859 5858 5858 5857 5856
5896 5897 5897 5897 5897 5898 5898 5899 5899 5899 5899 5900 5899 5898 5897 5897 5896 5895 5894 5893 5892 5891 5890 5889 5888 5887 5886 5885 5884 5883 5883 5882 5882 5881 5881 5880 5880 5879 5878 5878 5877 5877 5877 5876 5876 5875 5875 5874 5873 5872 5871 5871 5870 5869 5869 5868 5867 5867 5866 5866 5865 5865 5864 5864 5864 5863 5862 5863 5862 5862 5862 5862 5862 5861 5861 5861 5860 5860 5859 5859 5858 5858 5857 5856 5856
5895 5896 5897 5896 5897 5897 5898 5898 5899 5899 5899 5899 5899 5898 5897 5896 5895 5894 5894 5893 5892 5890 5890 5889 5888 5887 5885 5884 5883 5883 5883 5882 5882 5881 5881 5880 5880 5879 5879 5878 5878 5877 5877 5876 5876 5875 5875 5874 5873 5872 5872 5871 5870 5870 5869 5869 5868 5867 5867 5866 5866 5865 5865 5864 5864 5864 5863 5863 5863 5862 5862 5862 5862 5861 5861 5861 5860 5860 5859 5858 5858 5857 5856 5856 5855
5894 5896 5896 5896 5896 5896 5897 5898 5898 5898 5899 5899 5898 5897 5897 5896 5895 5894 5893 5892 5891 5890 5889 5888 5888 5886 5885 5884 5883 5883 5883 5882 5882 5881 5880 5880 5880 5879 5879 5878 5878 5877 5877 5876 5876 5875 5874 5874 5873 5872 5872 5871 5871 5870 5870 5869 5868 5868 5867 5867 5866 5866 5865 5865 5865 5864 5864 5863 5863 5863 5862 5862 5862 5861 5861 5861 5860 5859 5859 5858 5857 5857 5856 5855 5855
5892 5894 5895 5895 5895 5896 5896 5897 5897 5897 5898 5898 5897 5897 5896 5895 5895 5894 5893 5892 5891 5890 5889 5888 5887 5886 5885 5884 5883 5882 5882 5882 5881 5881 5880 5880 5880 5879 5878 5878 5878 5877 5877 5876 5876 5875 5874 5874 5873 5872 5872 5871 5871 5870 5869 5869 5869 5868 5867 5867 5866 5866 5866 5865 5865 5865 5864 5864 5863 5863 5862 5862 5862 5861 5861 5860 5860 5859 5858 5858 5857 5856 5856 5855 5855
5891 5892 5894 5894 5895 5895 5895 5896 5896 5897 5897 5897 5897 5896 5896 5895 5894 5893 5892 5892 5891 5890 5889 5888 5887 5886 5885 5884 5883 5882 5882 5882 5881 5881 5880 5880 5879 5879 5878 5878 5878 5877 5877 5876 5876 5875 5874 5874 5873 5873 5872 5872 5871 5870 5870 5869 5869 5868 5868 5867 5867 5866 5866 5866 5865 5864 5864 5863 5863 5862 5862 5861 5861 5860 5860 5859 5859 5858 5858 5857 5856 5856 5855 5854 5854
5890 5889 5891 5893 5894 5894 5895 5895 5895 5896 5896 5896 5896 5896 5896 5895 5894 5893 5892 5891 5890 5890 5889 5888 5887 5885 5884 5883 5883 5882 5881 5881 5881 5881 5880 5879 5879 5879 5878 5878 5877 5877 5877 5876 5875 5875 5874 5874 5873 5873 5873 5872 5871 5871 5870 5869 5869 5868 5868 5868 5867 5867 5866 5866 5865 5864 5863 5862 5862 5861 5861 5860 5860 5859 5859 5858 5858 5857 5857 5856 5856 5855 5854 5854 5853
5889 5888 5889 5891 5893 5893 5894 5894 5895 5895 5895 5895 5895 5895 5895 5894 5893 5892 5891 5891 5890 5889 5888 5887 5886 5885 5884 5883 5882 5881 5880 5880 5880 5880 5880 5879 5879 5878 5878 5877 5877 5877 5876 5876 5875 5875 5874 5874 5873 5873 5872 5872 5871 5870 5870 5869 5869 5868 5868 5867 5867 5867 5866 5866 5865 5864 5863 5862 5861 5861 5860 5859 5859 5859 5858 5858 5857 5857 5856 5856 5855 5854 5853 5853 5852
5889 5888 5887 5888 5891 5892 5893 5893 5893 5894 5894 5894 5894 5895 5895 5894 5892 5891 5891 5890 5889 5889 5888 5887 5886 5884 5883 5882 5881 5881 5880 5879 5879 5879 5879 5879 5878 5878 5878 5877 5877 5876 5876 5876 5875 5874 5874 5873 5873 5872 5872 5871 5871 5870 5869 5869 5868 5868 5868 5867 5867 5867 5866 5866 5865 5864 5863 5862 5861 5860 5859 5859 5858 5858 5857 5857 5857 5856 5856 5855 5854 5854 5853 5852 5851
5888 5887 5885 5886 5889 5890 5891 5892 5892 5893 5893 5893 5893 5894 5894 5893 5892 5891 5890 5889 5888 5888 5887 5886 5885 5884 5882 5881 5880 5880 5879 5878 5878 5878 5878 5878 5877 5877 5877 5876 5876 5876 5876 5875 5874 5874 5873 5873 5872 5872 5871 5871 5870 5869 5869 5868 5868 5867 5867 5867 5867 5867 5866 5866 5865 5864 5863 5862 5860 5860 5859 5858 5858 5857 5857 5856 5856 5855 5855 5854 5854 5853 5852 5851 5850
5886 5886 5885 5885 5887 5889 5890 5891 5891 5891 5891 5891 5892 5893 5893 5892 5891 5890 5889 5888 5887 5887 5886 5885 5884 5883 5882 5880 5879 5879 5878 5877 5877 5877 5877 5877 5876 5876 5876 5876 5875 5875 5875 5874 5873 5873 5872 5872 5871 5871 5870 5870 5869 5869 5868 5867 5867 5866 5866 5866 5866 5866 5866 5865 5864 5864 5863 5861 5860 5860 5859 5858 5858 5857 5857 5856 5855 5855 5854 5854 5853 5852 5851 5850 5849
5884 5884 5884 5883 5885 5887 5888 5889 5889 5890 5889 5890 5890 5891 5891 5891 5890 5889 5888 5887 5886 5886 5885 5884 5883 5882 5881 5880 5879 5878 5877 5877 5876 5876 5876 5875 5875 5875 5875 5875 5874 5874 5874 5873 5872 5872 5871 5871 5870 5870 5869 5869 5868 5868 5868 5867 5866 5865 5865 5865 5865 5865 5865 5864 5864 5864 5863 5861 5860 5859 5858 5858 5857 5857 5856 5856 5855 5854 5854 5853 5852 5851 5850 5849 5849
5882 5882 5882 5883 5884 5886 5887 5888 5888 5888 5887 5888 5889 5890 5890 5889 5889 5888 5887 5886 5885 5884 5884 5883 5882 5881 5880 5879 5878 5877 5876 5876 5875 5875 5875 5874 5874 5874 5874 5874 5873 5873 5873 5872 5871 5871 5870 5870 5869 5869 5868 5868 5867 5867 5867 5866 5865 5864 5864 5864 5864 5864 5864 5864 5863 5863 5862 5861 5860 5859 5858 5857 5857 5857 5856 5855 5854 5854 5853 5852 5852 5851 5849 5849 5848
5879 5880 5882 5882 5883 5884 5885 5886 5886 5886 5886 5887 5888 5888 5888 5888 5887 5887 5886 5885 5884 5883 5882 5881 5880 5879 5879 5878 5877 5876 5876 5875 5875 5874 5874 5873 5873 5872 5872 5872 5872 5872 5871 5871 5870 5870 5869 5869 5869 5868 5867 5867 5867 5866 5866 5866 5865 5864 5863 5863 5863 5863 5863 5862 5862 5862 5861 5861 5860 5858 5858 5857 5857 5856 5856 5855 5854 5853 5853 5852 5851 5850 5849 5848 5847
5877 5879 5881 5882 5882 5882 5883 5884 5884 5884 5884 5885 5886 5887 5887 5886 5886 5885 5885 5884 5882 5881 5880 5879 5879 5878 5877 5877 5876 5875 5875 5874 5874 5873 5873 5872 5872 5871 5871 5871 5871 5870 5870 5870 5869 5869 5869 5869 5868 5868 5867 5866 5866 5865 5865 5865 5864 5863 5863 5862 5862 5862 5861 5861 5861 5861 5860 5860 5859 5858 5857 5857 5856 5855 5855 5854 5854 5853 5852 5851 5850 5849 5848 5847 5845
5875 5877 5879 5880 5880 5881 5881 5882 5881 5882 5883 5884 5885 5885 5885 5885 5884 5884 5883 5882 5881 5879 5878 5878 5877 5876 5876 5875 5875 5874 5874 5873 5873 5872 5872 5871 5871 5870 5870 5870 5869 5869 5869 5868 5868 5868 5868 5868 5868 5867 5867 5866 5865 5864 5864 5864 5864 5863 5862 5861 5862 5861 5860 5860 5860 5860 5859 5859 5858 5857 5857 5856 5855 5855 5854 5853 5853 5852 5851 5850 5849 5848 5847 5845 5844
5872 5875 5876 5878 5879 5880 5880 5879 5879 5880 5881 5882 5883 5883 5883 5883 5883 5882 5882 5880 5879 5878 5877 5875 5875 5874 5874 5874 5873 5873 5873 5872 5872 5871 5871 5870 5870 5870 5869 5869 5868 5867 5867 5868 5867 5867 5868 5868 5867 5867 5866 5866 5865 5864 5864 5863 5863 5862 5861 5861 5861 5860 5859 5859 5860 5859 5858 5858 5857 5856 5856 5855 5855 5854 5853 5853 5852 5851 5850 5849 5848 5846 5845 5844 5842
5870 5872 5874 5876 5877 5878 5878 5877 5877 5878 5879 5880 5881 5881 5881 5881 5881 5880 5879 5879 5877 5876 5875 5873 5873 5872 5872 5872 5872 5872 5872 5871 5870 5870 5870 5869 5869 5869 5868 5868 5867 5866 5866 5867 5866 5866 5867 5867 5867 5866 5866 5866 5865 5864 5864 5863 5863 5863 5861 5861 5860 5859 5859 5858 5858 5858 5857 5857 5856 5856 5855 5854 5854 5853 5852 5852 5851 5850 5849 5847 5846 5845 5843 5842 5840
5867 5869 5871 5873 5875 5875 5875 5875 5875 5876 5877 5877 5878 5879 5879 5879 5879 5878 5877 5877 5876 5874 5873 5872 5871 5870 5870 5870 5870 5870 5870 5870 5869 5869 5868 5868 5868 5868 5867 5866 5865 5865 5865 5866 5865 5865 5865 5866 5865 5865 5865 5865 5864 5864 5863 5863 5863 5862 5861 5860 5859 5859 5858 5857 5857 5856 5856 5856 5855 5855 5854 5853 5853 5852 5851 5851 5850 5849 5847 5846 5845 5844 5842 5840 5839
5864 5866 5868 5870 5872 5872 5873 5873 5874 5874 5875 5875 5876 5876 5877 5876 5876 5876 5875 5875 5874 5872 5870 5870 5869 5868 5868 5868 5868 5868 5868 5868 5868 5867 5867 5867 5867 5866 5865 5865 5864 5863 5863 5864 5864 5863 5863 5864 5864 5864 5864 5864 5863 5862 5862 5862 5862 5861 5860 5859 5858 5858 5858 5857 5856 5855 5855 5855 5854 5854 5853 5852 5852 5851 5850 5849 5848 5847 5846 5845 5843 5842 5840 5839 5837
5862 5864 5866 5868 5869 5870 5870 5871 5872 5873 5873 5873 5873 5874 5874 5874 5874 5873 5873 5872 5871 5869 5868 5867 5867 5866 5866 5866 5865 5865 5865 5865 5866 5866 5865 5865 5865 5864 5863 5863 5863 5861 5861 5862 5862 5862 5862 5862 5863 5863 5863 5862 5861 5861 5861 5861 5861 5860 5858 5857 5857 5857 5856 5856 5856 5855 5854 5853 5853 5852 5852 5851 5850 5849 5849 5848 5847 5845 5844 5843 5841 5840 5838 5837 5835
5860 5862 5864 5866 5867 5867 5868 5869 5869 5870 5871 5871 5871 5872 5872 5872 5872 5871 5870 5869 5869 5867 5866 5865 5864 5864 5864 5863 5863 5863 5862 5862 5863 5864 5863 5863 5863 5862 5860 5859 5859 5858 5858 5859 5860 5860 5861 5861 5862 5861 5861 5860 5859 5859 5859 5859 5859 5859 5857 5856 5856 5856 5855 5854 5854 5854 5853 5852 5852 5851 5851 5850 5849 5848 5847 5847 5845 5844 5842 5841 5840 5838 5836 5835 5834
5858 5860 5862 5863 5864 5865 5865 5866 5867 5868 5869 5868 5868 5869 5869 5869 5869 5868 5867 5866 5866 5864 5863 5862 5861 5861 5861 5861 5861 5860 5860 5860 5861 5862 5863 5863 5862 5861 5860 5858 5858 5857 5857 5856 5857 5859 5859 5860 5860 5860 5859 5858 5858 5858 5858 5857 5858 5857 5856 5855 5854 5854 5854 5853 5853 5853 5852 5851 5850 5850 5849 5849 5847 5846 5845 5845 5844 5842 5840 5839 5838 5836 5834 5833 5832
5856 5858 5860 5861 5861 5862 5863 5863 5864 5865 5866 5866 5865 5865 5865 5865 5865 5864 5864 5863 5862 5862 5861 5860 5859 5858 5858 5859 5858 5858 5859 5859 5860 5861 5862 5861 5861 5860 5859 5860 5860 5859 5857 5854 5855 5857 5857 5857 5858 5858 5857 5857 5857 5856 5856 5856 5855 5855 5854 5853 5852 5852 5852 5852 5852 5851 5851 5850 5849 5848 5847 5847 5846 5844 5843 5843 5842 5841 5839 5837 5836 5834 5832 5831 5829
5853 5856 5857 5858 5858 5859 5860 5861 5861 5862 5863 5863 5862 5862 5861 5861 5861 5861 5860 5860 5859 5859 5858 5857 5856 5856 5856 5856 5856 5856 5857 5858 5859 5859 5858 5857 5857 5857 5857 5858 5859 5859 5858 5856 5855 5856 5856 5856 5856 5856 5856 5856 5855 5855 5855 5854 5854 5853 5852 5852 5851 5850 5850 5850 5850 5850 5850 5849 5848 5848 5846 5845 5844 5843 5841 5840 5839 5838 5836 5835 5833 5831 5830 5828 5827
5851 5853 5854 5855 5856 5856 5857 5858 5858 5859 5860 5859 5859 5858 5858 5858 5858 5858 5858 5857 5857 5856 5856 5855 5854 5854 5853 5853 5854 5854 5855 5855 5855 5854 5854 5854 5855 5855 5855 5855 5856 5855 5856 5856 5856 5856 5855 5855 5855 5855 5854 5854 5854 5854 5854 5853 5852 5852 5850 5850 5849 5849 5849 5849 5848 5848 5848 5848 5848 5847 5846 5845 5844 5842 5841 5838 5836 5834 5833 5832 5830 5829 5828 5826 5825
5847 5850 5851 5852 5853 5854 5855 5856 5855 5856 5856 5856 5855 5855 5854 5854 5855 5855 5855 5855 5854 5854 5853 5852 5852 5852 5852 5852 5852 5852 5852 5852 5852 5852 5853 5853 5852 5853 5853 5853 5854 5853 5852 5853 5854 5854 5854 5854 5854 5853 5853 5852 5852 5852 5852 5852 5851 5850 5850 5849 5848 5848 5848 5848 5847 5846 5846 5846 5846 5846 5845 5844 5843 5842 5840 5838 5836 5834 5832 5830 5828 5827 5825 5824 5823
5843 5847 5848 5850 5851 5852 5853 5853 5852 5853 5853 5852 5852 5852 5851 5852 5852 5852 5853 5852 5852 5852 5851 5850 5850 5850 5850 5850 5849 5849 5849 5850 5851 5851 5851 5850 5850 5851 5851 5851 5852 5852 5851 5851 5851 5852 5852 5852 5852 5852 5851 5851 5851 5851 5851 5850 5850 5849 5849 5848 5847 5846 5846 5846 5846 5845 5845 5844 5844 5843 5843 5842 5841 5839 5838 5836 5835 5833 5831 5829 5827 5825 5823 5822 5820
5840 5843 5845 5847 5848 5850 5850 5849 5849 5849 5849 5849 5849 5849 5849 5850 5850 5850 5850 5849 5849 5849 5849 5849 5849 5849 5848 5848 5848 5848 5848 5849 5849 5849 5848 5848 5848 5849 5849 5849 5849 5850 5850 5850 5850 5850 5850 5850 5850 5850 5850 5849 5849 5850 5849 5849 5849 5848 5847 5847 5846 5845 5845 5844 5844 5844 5843 5843 5842 5841 5840 5839 5838 5836 5835 5834 5832 5831 5829 5828 5826 5824 5822 5820 5818
5837 5840 5842 5844 5846 5847 5847 5846 5846 5846 5846 5846 5846 5846 5846 5847 5847 5847 5847 5847 5847 5848 5847 5848 5847 5847 5846 5846 5846 5846 5846 5847 5847 5846 5846 5846 5847 5847 5847 5847 5848 5848 5848 5849 5849 5849 5849 5849 5849 5849 5848 5848 5848 5848 5848 5847 5848 5847 5845 5845 5845 5844 5844 5843 5843 5842 5841 5841 5840 5839 5838 5837 5835 5834 5833 5831 5830 5829 5827 5825 5824 5822 5820 5818 5816
5834 5836 5839 5841 5843 5844 5843 5842 5843 5843 5843 5843 5843 5843 5843 5844 5845 5845 5845 5845 5846 5846 5846 5846 5845 5845 5845 5845 5845 5844 5844 5845 5845 5844 5844 5844 5845 5845 5845 5845 5846 5846 5846 5847 5847 5847 5847 5847 5847 5847 5846 5846 5846 5846 5846 5846 5846 5845 5844 5844 5844 5843 5842 5842 5841 5841 5840 5839 5838 5837 5836 5835 5833 5832 5830 5829 5827 5826 5824 5823 5821 5820 5818 5816 5814
5831 5833 5836 5838 5840 5841 5840 5839 5840 5841 5840 5840 5840 5840 5841 5842 5842 5842 5843 5843 5844 5844 5844 5844 5844 5843 5843 5843 5843 5842 5843 5843 5843 5843 5843 5842 5843 5843 5843 5843 5844 5844 5844 5845 5845 5845 5845 5846 5845 5845 5844 5844 5844 5844 5844 5844 5844 5843 5843 5842 5842 5841 5841 5840 5840 5839 5839 5838 5837 5836 5835 5833 5832 5830 5828 5827 5825 5824 5822 5821 5819 5818 5816 5814 5812
5828 5831 5834 5835 5836 5837 5836 5836 5837 5837 5837 5838 5838 5838 5839 5840 5840 5840 5841 5842 5841 5842 5843 5843 5842 5842 5842 5841 5841 5841 5841 5841 5841 5841 5841 5841 5841 5841 5840 5841 5841 5842 5842 5843 5843 5843 5844 5844 5843 5843 5843 5842 5842 5842 5842 5842 5842 5841 5841 5840 5840 5840 5840 5839 5838 5838 5837 5836 5835 5834 5833 5831 5830 5828 5826 5825 5823 5822 5820 5818 5817 5815 5813 5811 5809
5826 5829 5831 5832 5833 5833 5832 5833 5834 5834 5835 5835 5835 5836 5836 5837 5838 5838 5839 5839 5840 5841 5842 5841 5841 5840 5840 5840 5840 5840 5839 5839 5839 5839 5839 5839 5839 5839 5838 5839 5840 5840 5840 5840 5841 5841 5841 5841 5841 5841 5841 5841 5841 5841 5840 5840 5840 5839 5839 5838 5838 5838 5839 5838 5837 5836 5835 5834 5833 5832 5831 5829 5828 5826 5824 5823 5821 5819 5818 5816 5814 5812 5810 5808 5806
5823 5826 5828 5830 5830 5830 5829 5830 5831 5831 5832 5832 5833 5833 5834 5835 5836 5836 5837 5838 5839 5839 5840 5839 5839 5838 5838 5838 5838 5838 5837 5837 5837 5837 5837 5837 5837 5837 5837 5837 5838 5837 5837 5838 5838 5838 5838 5839 5839 5839 5839 5839 5839 5839 5839 5838 5838 5838 5837 5837 5836 5836 5837 5836 5836 5835 5834 5833 5831 5830 5829 5827 5826 5824 5822 5821 5819 5817 5816 5814 5812 5810 5809 5806 5804
5820 5823 5825 5827 5827 5826 5826 5827 5828 5828 5829 5829 5830 5831 5832 5834 5834 5835 5835 5836 5837 5837 5837 5837 5836 5836 5836 5836 5836 5836 5835 5835 5835 5835 5835 5835 5835 5835 5835 5835 5835 5834 5835 5835 5835 5835 5836 5837 5837 5837 5837 5837 5837 5837 5837 5837 5836 5836 5836 5835 5834 5834 5834 5834 5834 5833 5832 5831 5829 5828 5827 5825 5823 5822 5820 5819 5817 5816 5814 5812 5810 5809 5807 5804 5802
5818 5820 5822 5823 5823 5822 5823 5825 5825 5826 5826 5827 5828 5829 5831 5832 5833 5833 5834 5834 5835 5835 5834 5834 5834 5834 5834 5834 5833 5833 5833 5833 5833 5833 5833 5833 5833 5833 5833 5833 5832 5832 5832 5832 5833 5833 5834 5835 5835 5835 5835 5835 5835 5835 5835 5835 5835 5835 5835 5834 5834 5833 5833 5832 5831 5831 5830 5829 5828 5826 5824 5823 5821 5820 5818 5817 5815 5814 5812 5810 5808 5806 5804 5802 5799
5815 5818 5819 5820 5819 5820 5821 5822 5822 5823 5824 5824 5826 5828 5830 5830 5831 5831 5831 5832 5832 5832 5832 5832 5832 5832 5832 5831 5831 5831 5830 5830 5830 5830 5830 5831 5831 5831 5831 5830 5830 5830 5830 5830 5831 5832 5832 5833 5833 5833 5833 5833 5833 5833 5833 5833 5833 5833 5834 5834 5833 5832 5832 5831 5830 5828 5827 5827 5826 5824 5822 5821 5819 5818 5817 5815 5814 5812 5810 5808 5806 5803 5801 5799 5797
5812 5815 5816 5817 5817 5817 5818 5819 5820 5821 5822 5823 5825 5827 5828 5828 5828 5828 5829 5830 5830 5830 5830 5830 5830 5830 5830 5829 5828 5827 5827 5827 5827 5828 5828 5828 5828 5828 5828 5828 5828 5828 5828 5828 5829 5830 5830 5830 5831 5831 5830 5830 5830 5830 5831 5831 5831 5831 5831 5831 5831 5831 5830 5830 5829 5827 5825 5824 5823 5822 5820 5819 5818 5817 5815 5813 5812 5809 5807 5805 5803 5800 5799 5797 5795
5810 5812 5814 5814 5815 5815 5815 5816 5817 5818 5820 5821 5823 5824 5825 5825 5826 5826 5827 5827 5827 5828 5828 5828 5828 5828 5827 5826 5825 5824 5824 5825 5825 5825 5825 5826 5825 5825 5825 5825 5826 5826 5826 5826 5827 5827 5828 5828 5828 5828 5828 5828 5828 5828 5828 5829 5829 5829 5829 5829 5829 5829 5828 5828 5827 5826 5824 5822 5821 5820 5818 5817 5816 5815 5813 5811 5809 5807 5805 5802 5801 5799 5798 5796 5794
5807 5809 5811 5812 5813 5813 5813 5814 5815 5816 5817 5819 5821 5822 5823 5823 5824 5824 5824 5824 5825 5826 5826 5826 5826 5825 5824 5823 5823 5822 5822 5822 5823 5822 5822 5823 5823 5822 5822 5822 5823 5823 5823 5823 5824 5825 5825 5825 5825 5825 5825 5825 5826 5826 5826 5826 5826 5826 5826 5826 5826 5826 5826 5825 5825 5824 5822 5821 5819 5818 5816 5815 5813 5812 5811 5808 5806 5804 5803 5801 5799 5798 5796 5794 5792
5805 5807 5809 5810 5810 5811 5811 5812 5813 5814 5815 5817 5818 5819 5821 5822 5822 5822 5822 5823 5823 5824 5824 5824 5823 5822 5821 5821 5820 5820 5820 5820 5820 5819 5820 5820 5820 5820 5819 5820 5820 5820 5820 5820 5821 5822 5822 5823 5823 5823 5823 5824 5824 5824 5824 5824 5824 5824 5824 5824 5824 5823 5823 5822 5822 5821 5820 5818 5817 5816 5815 5813 5812 5810 5808 5807 5804 5802 5801 5799 5797 5796 5794 5792 5789